Location: Chuathbaluk
(61.5726°N, 159.2454°W)
Time: 23:16:48
(UTC+00:00)

Transit 4A - Pass Details

Date: 26 November 2020
Orbit: 864 x 980 km, 66.8° (Epoch: 20 January)

Event Time Altitude Azimuth Distance (km) Brightness Sun altitude
Rises 17:48:11 0° 156° (SSE) 3,645 11.9 -9.1°
Reaches altitude 10° 17:51:54 10° 135° (SE) 2,719 11.8 -8.7°
Maximum altitude 17:55:15 15° 103° (ESE) 2,386 11.3 -8.4°
Drops below altitude 10° 17:58:38 10° 71° (ENE) 2,742 11.0 -8.0°
Sets 18:02:24 0° 49° (NE) 3,695 11.3 -7.6°
